Hartford, CT

10:50 AM EST on February 14, 2016 (GMT -0500)
Hartford-brainard

Weather History for KHFD - September, 2014

Change the Weather History Date:

Thursday, September 4, 2014

  Actual Average Record
Temperature  
Mean Temperature 72 °F -  
Max Temperature 86 °F 77 °F 95 °F (1929)
Min Temperature 57 °F 57 °F 45 °F (1946)
Cooling Degree Days 6    
Growing Degree Days 22 (Base 50)    
Moisture  
Dew Point 60 °F    
Average Humidity 55    
Maximum Humidity 81    
Minimum Humidity 36    
Precipitation  
Precipitation 0.00 in - - ()
Sea Level Pressure  
Sea Level Pressure 30.15 in    
Wind  
Wind Speed 3 mph (SSE)    
Max Wind Speed 10 mph    
Max Gust Speed -    
Visibility 9 miles    
Events      
Averages and records for this station are not official NWS values.
T = Trace of Precipitation, MM = Missing Value Source: NWS Daily Summary

Daily Weather History Graph

Daily Weather History Graph

Search for Another Location

Airport or City:

Trip Planner

Search our weather history database for the weather conditions in past years. The results will help you decide how hot, cold, wet, or windy it might be!

Date:

Astronomy

Sep. 04, 2014 Rise Set
Actual Time 6:19 AM EDT 7:18 PM EDT
Civil Twilight 5:51 AM EDT 7:47 PM EDT
Nautical Twilight 5:17 AM EDT 8:21 PM EDT
Astronomical Twilight 4:41 AM EDT 8:56 PM EDT
Moon 3:56 PM EDT (9/4) 1:04 AM EDT (9/4)
Length of Visible Light 13h 56m
Length of Day
12h 59m
Waxing Gibbous, 74% of the Moon is Illuminated
Sep 4
Waxing Gibbous
Sep 8
Full
Sep 15
Last Quarter
Sep 24
New
Oct 1
First Quarter

Hourly Weather History & Observations

Time (EDT) Temp. Heat Index Dew Point Humidity Pressure Visibility Wind Dir Wind Speed Gust Speed Precip Events Conditions
12:53 AM 63.0 °F - - N/A% 30.12 in 10.0 mi Calm Calm - N/A   Clear
1:53 AM 62.1 °F - - N/A% 30.12 in 10.0 mi SE 3.5 mph - N/A   Clear
2:53 AM 61.0 °F - - N/A% 30.13 in 10.0 mi NNE 3.5 mph - N/A   Clear
3:49 AM 60.8 °F - - N/A% 30.14 in 1.8 mi SE 3.5 mph - N/A   Clear
3:53 AM 60.1 °F - - N/A% 30.14 in 1.8 mi SSE 3.5 mph - N/A   Clear
4:02 AM 61.0 °F - - N/A% 30.14 in 10.0 mi Calm Calm - N/A   Clear
4:53 AM 57.9 °F - - N/A% 30.14 in 7.0 mi Calm Calm - N/A   Clear
5:53 AM 59.0 °F - - N/A% 30.16 in 10.0 mi Calm Calm - N/A   Clear
6:00 AM 57.9 °F - - N/A% 30.16 in 1.8 mi Calm Calm - N/A   Clear
6:04 AM 57.9 °F - - N/A% 30.17 in 10.0 mi Calm Calm - N/A   Partly Cloudy
6:53 AM 60.1 °F - - N/A% 30.19 in 10.0 mi Calm Calm - N/A   Clear
7:53 AM 63.0 °F - - N/A% 30.21 in 10.0 mi Calm Calm - N/A   Clear
8:53 AM 66.9 °F - - N/A% 30.20 in 10.0 mi Calm Calm - N/A   Clear
9:53 AM 73.0 °F - - N/A% 30.20 in 10.0 mi Calm Calm - N/A   Clear
10:53 AM 77.0 °F - - N/A% 30.18 in 10.0 mi SE 3.5 mph - N/A   Clear
11:53 AM 82.0 °F - - N/A% 30.16 in 10.0 mi SE 6.9 mph - N/A   Clear
12:53 PM 82.0 °F 81.7 °F 57.0 °F 42% 30.14 in 10.0 mi SSE 6.9 mph - N/A   Scattered Clouds
1:53 PM 84.0 °F 83.3 °F 57.0 °F 40% 30.14 in 10.0 mi South 8.1 mph - N/A   Mostly Cloudy
2:53 PM 84.0 °F 83.3 °F 57.0 °F 40% 30.14 in 10.0 mi South 10.4 mph - N/A   Mostly Cloudy
3:53 PM 86.0 °F 84.7 °F 55.9 °F 36% 30.14 in 10.0 mi Variable 6.9 mph - N/A   Mostly Cloudy
4:53 PM 84.0 °F 83.5 °F 57.9 °F 41% 30.12 in 10.0 mi SW 5.8 mph - N/A   Clear
5:53 PM 82.0 °F 82.4 °F 60.1 °F 47% 30.11 in 10.0 mi SSE 8.1 mph - N/A   Clear
6:53 PM 79.0 °F - 61.0 °F 54% 30.12 in 10.0 mi South 6.9 mph - N/A   Clear
7:53 PM 75.0 °F - 63.0 °F 66% 30.14 in 10.0 mi SSE 5.8 mph - N/A   Clear
8:53 PM 73.9 °F - 63.0 °F 68% 30.14 in 10.0 mi South 5.8 mph - N/A   Clear
9:53 PM 73.0 °F - 63.0 °F 71% 30.14 in 10.0 mi SSE 5.8 mph - N/A   Clear
10:53 PM 71.1 °F - 63.0 °F 75% 30.14 in 10.0 mi South 4.6 mph - N/A   Clear
11:53 PM 70.0 °F - 64.0 °F 81% 30.14 in 10.0 mi SSE 4.6 mph - N/A   Clear